AirNav   Air Wisconsin Up To $57,000 Bonus
 
 1135 users online  

MO91 Barnes Jewish Hospital Heliport
St Louis, Missouri, USA

GOING TO ST LOUIS?


FAA INFORMATION EFFECTIVE 22 APRIL 2021

Location

FAA Identifier: MO91
Lat/Long: 38-38-10.5400N 090-15-57.2900W
38-38.175667N 090-15.954833W
38.6362611,-90.2659139
(estimated)
Elevation: 513 ft. / 156 m (estimated)
Variation: 01E (1990)
Time zone: UTC -5 (UTC -6 during Standard Time)
Zip code: 63110

Heliport Operations

Heliport use: Private use, MEDICAL USE.
Activation date: 06/1991
Control tower: no
ARTCC: KANSAS CITY CENTER
FSS: SAINT LOUIS FLIGHT SERVICE STATION
Attendance: CONTINUOUS
Wind indicator: yes
Segmented circle: no
Lights: ACTVT PERIMETER LGTS - 123.10.

Heliport Communications

WX ASOS at CPS (7 nm SE): PHONE 618-332-0001
WX ASOS at STL (8 nm NW): 125.025 (314-890-4790)
WX ASOS at SUS (18 nm W): 134.8 (314-890-7255)
WX AWOS-3 at ALN (18 nm NE): 128.0 (618-259-7231)
WX ASOS at SET (19 nm NW): 118.075 (636-250-4590)

Nearby radio navigation aids

VOR radial/distance  VOR name  Freq  Var
STLr142/16.8ST LOUIS VORTAC117.4001E
TOYr245/17.4TROY VORTAC116.0004E
FTZr091/33.2FORISTELL VORTAC110.8005E

 
NDB name  Hdg/Dist  Freq  Var  ID
ACORE306/11.935000ECP -.-. .--.
EAVES102/13.422701WFZ ..-. --..
CIVIC MEMORIAL214/18.226301WCVM -.-. ...- --

Heliport Services

Runway Information

Helipad H1

Dimensions: 40 x 40 ft. / 12 x 12 m
Surface: concrete
Runway edge lights: PERI
Latitude: 38-38.175667N
Longitude: 090-15.954833W
Elevation: 513.0 ft.
Traffic pattern: leftleft

Heliport Ownership and Management from official FAA records

Ownership: Privately-owned
Owner: BARNES JEWISH HOSPITAL
ONE BARNES JEWISH PLAZA
ST LOUIS, MO 63110
Phone 314-747-3000
Manager: RICK HAAS
ONE BARNES JEWISH PLAZA
ST LOUIS, MO 63110
Phone 314-747-3000

Heliport Operational Statistics

Aircraft based on the field: 1
Helicopters: 1
    

Additional Remarks

A52-H1 220 FT TWR 150 FT NORTH & 20 FT PEDESTRIAN BRIDGE 100 FT EAST OF HELIPAD.
OWNER DESIRES HELIPAD NOT BE CHARTED.
FOR CD CTC ST LOUIS APCH AT 314-890-1018.

Instrument Procedures

There are no published instrument procedures at MO91.

Some nearby airports with instrument procedures:

KCPS - St Louis Downtown Airport (7 nm SE)
KSTL - St Louis Lambert International Airport (8 nm NW)
1H0 - Creve Coeur Airport (13 nm NW)
KSUS - Spirit of St Louis Airport (18 nm W)
KALN - St Louis Regional Airport (18 nm NE)
KSET - St Charles County Smartt Airport (19 nm NW)
 
Loc | Ops | Rwys | IFR | FBO | Links
Com | Nav | Svcs | Stats | Notes
Area around MO91 (Barnes Jewish Hospital Heliport)
 
Road maps at: MapQuest Bing Google
 
Aerial photo
No photo
 
Sectional chart

 
Airport distance calculator
Flying to Barnes Jewish Hospital Heliport? Find the distance to fly.

From to MO91

Sunrise and sunset
Times for 08-May-2021
 Local
(UTC-5)
 Zulu
(UTC)
Morning civil twilight05:2810:28
Sunrise05:5710:57
Sunset19:5800:58
Evening civil twilight20:2801:28

Current date and time
Zulu (UTC)  08-May-2021 20:18:24
Local (UTC-5)  08-May-2021 15:18:24
 
METAR
KCPS 
7nm SE 
081953Z 12011G21KT 10SM OVC039 13/04 A2998 RMK AO2 PRESFR SLP151 T01330039
KSTL 
8nm NW 
081951Z 12018G23KT 10SM BKN038 BKN080 OVC200 14/03 A2997 RMK AO2 PRESFR SLP147 T01440033
KSUS 
18nm W 
081954Z 09014G19KT 10SM FEW070 SCT090 BKN110 15/04 A2995 RMK AO2 PK WND 10026/1914 SLP140 T01500044
KALN 
18nm NE 
081950Z 09013KT 10SM OVC044 12/05 A3000
KSET 
19nm NW 
081954Z AUTO 12015KT 10SM BKN046 OVC090 14/02 A2997 RMK AO2 SLP147 T01440022
TAF
KCPS 
7nm SE 
081738Z 0818/0918 12014G23KT P6SM VCSH OVC050 FM082100 12014G24KT P6SM BKN040 FM090300 12015G25KT P6SM VCSH OVC030 FM091000 16015G25KT 5SM SHRA VCTS OVC025CB TEMPO 0911/0913 2SM +TSRA OVC010CB FM091500 27014G24KT P6SM -SHRA OVC015
KSTL 
8nm NW 
081738Z 0818/0924 12014G23KT P6SM VCSH OVC050 FM082100 12014G24KT P6SM BKN040 FM090300 12015G25KT P6SM VCSH OVC030 FM091000 16015G25KT 5SM SHRA VCTS OVC025CB TEMPO 0911/0913 2SM +TSRA OVC010CB FM091500 27014G24KT P6SM -SHRA OVC015 FM091800 34013G23KT P6SM OVC020
KSUS 
18nm W 
081738Z 0818/0918 12014G23KT P6SM VCSH OVC050 FM082100 12014G24KT P6SM BKN040 FM090300 12015G25KT P6SM VCSH OVC030 FM091000 16015G25KT 5SM SHRA VCTS OVC025CB TEMPO 0911/0913 2SM +TSRA OVC010CB FM091500 27014G24KT P6SM -SHRA OVC015
NOTAMs
Click for the latest NOTAMs
NOTAMs are issued by the DoD/FAA and will open in a separate window not controlled by AirNav.

 

 
 

Would you like to see your business listed on this page?

 If your business provides an interesting product or service to pilots, flight crews, aircraft, or users of the Barnes Jewish Hospital Heliport, you should consider listing it here.  To start the listing process, click on the button below
 
Add a business
 

Other Pages about Barnes Jewish Hospital Heliport

Update a link
 
Copyright © AirNav, LLC. All rights reserved. Privacy Policy  Contact